• In Germany
  • List of Countries
  • For 7 days
  • Water Temperature
  • Satellite Maps
  • Weather Map
  • Weather Widgets
  • user-avatar
    Login

    Hourly Weather Igls

    Today, 24 November, Friday

    Time Temperature Precipitation Wind Pressure Humidity
    00:00 +3°C° 0 mm 2 mps 685 mmHg 72%
    01:00 +4°C° 0 mm 2 mps 685 mmHg 71%
    02:00 +4°C° 0 mm 2 mps 684 mmHg 73%
    03:00 +3°C° 0 mm 2 mps 684 mmHg 74%
    04:00 +3°C° 0 mm 2 mps 684 mmHg 75%
    05:00 +3°C° 0 mm 2 mps 684 mmHg 76%
    06:00 +3°C° 0 mm 2 mps 684 mmHg 77%
    07:00 +2°C° 0 mm 2 mps 684 mmHg 80%
    08:00 +4°C° 0 mm 2 mps 684 mmHg 79%
    09:00 +5°C° 0 mm 2 mps 684 mmHg 77%
    10:00 +7°C° 0 mm 2 mps 685 mmHg 76%
    11:00 +8°C° 0 mm 2 mps 684 mmHg 77%
    12:00 +9°C° 0 mm 2 mps 684 mmHg 78%
    13:00 +10°C° 0 mm 2 mps 684 mmHg 80%
    14:00 +9°C° 0 mm 2 mps 684 mmHg 81%
    15:00 +8°C° 0 mm 2 mps 683 mmHg 81%
    16:00 +7°C° 0 mm 2 mps 683 mmHg 82%
    17:00 +7°C° 0 mm 2 mps 683 mmHg 83%
    18:00 +6°C° 0 mm 2 mps 683 mmHg 83%
    19:00 +5°C° 0 mm 2 mps 683 mmHg 83%
    20:00 +5°C° 0 mm 2 mps 683 mmHg 84%
    21:00 +5°C° 0 mm 2 mps 683 mmHg 85%
    22:00 +4°C° 0 mm 2 mps 683 mmHg 86%
    23:00 +4°C° 0 mm 2 mps 683 mmHg 87%

    Tomorrow, 25 November, Saturday

    Time Temperature Precipitation Wind Pressure Humidity
    00:00 +4°C° 0 mm 2 mps 683 mmHg 88%
    01:00 +3°C° 0 mm 2 mps 683 mmHg 89%
    02:00 +3°C° 0 mm 2 mps 682 mmHg 90%
    03:00 +2°C° 0 mm 3 mps 681 mmHg 90%
    04:00 +2°C° 0 mm 3 mps 681 mmHg 90%
    05:00 +2°C° 0 mm 3 mps 680 mmHg 90%
    06:00 +3°C° 0 mm 3 mps 679 mmHg 90%
    07:00 +3°C° 0 mm 3 mps 679 mmHg 89%
    08:00 +4°C° 0 mm 3 mps 678 mmHg 88%
    09:00 +5°C° 0 mm 4 mps 678 mmHg 86%
    10:00 +6°C° 0 mm 4 mps 678 mmHg 84%
    11:00 +7°C° 0.3 mm 3 mps 678 mmHg 86%
    12:00 +7°C° 0.3 mm 3 mps 679 mmHg 88%
    13:00 +8°C° 0.3 mm 2 mps 679 mmHg 89%
    14:00 +7°C° 1.3 mm 2 mps 679 mmHg 91%
    15:00 +6°C° 1.3 mm 2 mps 679 mmHg 93%
    16:00 +5°C° 1.3 mm 2 mps 679 mmHg 95%
    17:00 +4°C° 1 mm 2 mps 679 mmHg 95%
    18:00 +4°C° 1 mm 2 mps 680 mmHg 95%
    19:00 +3°C° 1 mm 2 mps 680 mmHg 95%
    20:00 +2°C° 0.6 mm 2 mps 680 mmHg 95%
    21:00 +2°C° 0.6 mm 2 mps 681 mmHg 95%
    22:00 +2°C° 0.6 mm 2 mps 681 mmHg 95%
    23:00 +1°C° 0.5 mm 2 mps 681 mmHg 95%

    Day after tomorrow, 26 November, Sunday

    Time Temperature Precipitation Wind Pressure Humidity
    00:00 +1°C° 0.5 mm 2 mps 681 mmHg 95%
    01:00 +1°C° 0.5 mm 2 mps 681 mmHg 95%
    02:00 +1°C° 0.6 mm 2 mps 682 mmHg 95%
    03:00 -1°C° 0.6 mm 3 mps 682 mmHg 95%
    04:00 -1°C° 0.6 mm 3 mps 682 mmHg 95%
    05:00 -1°C° 0.9 mm 3 mps 683 mmHg 95%
    06:00 -1°C° 0.9 mm 3 mps 683 mmHg 95%
    07:00 -1°C° 0.9 mm 3 mps 684 mmHg 95%
    08:00 -2°C° 0.7 mm 3 mps 684 mmHg 94%
    09:00 -2°C° 0.7 mm 3 mps 685 mmHg 92%
    10:00 -2°C° 0.7 mm 3 mps 686 mmHg 91%
    11:00 -2°C° 0.1 mm 3 mps 686 mmHg 88%
    12:00 -2°C° 0.1 mm 3 mps 686 mmHg 86%
    13:00 -2°C° 0.1 mm 3 mps 686 mmHg 83%
    14:00 -4°C° 0.1 mm 3 mps 686 mmHg 86%
    15:00 -4°C° 0.1 mm 2 mps 686 mmHg 88%
    16:00 -4°C° 0.1 mm 2 mps 686 mmHg 90%
    17:00 -5°C° 0 mm 2 mps 687 mmHg 91%
    18:00 -7°C° 0 mm 2 mps 687 mmHg 92%
    19:00 -8°C° 0 mm 2 mps 688 mmHg 93%
    20:00 -8°C° 0 mm 2 mps 688 mmHg 92%
    21:00 -8°C° 0 mm 2 mps 688 mmHg 91%
    22:00 -8°C° 0 mm 2 mps 689 mmHg 90%
    23:00 -8°C° 0.1 mm 2 mps 689 mmHg 90%

    27 November, Monday

    Time Temperature Precipitation Wind Pressure Humidity
    00:00 -8°C° 0.1 mm 2 mps 689 mmHg 89%
    01:00 -8°C° 0.1 mm 2 mps 689 mmHg 89%
    02:00 -8°C° 0 mm 2 mps 689 mmHg 89%
    03:00 -9°C° 0 mm 2 mps 689 mmHg 90%
    04:00 -9°C° 0 mm 2 mps 689 mmHg 91%
    05:00 -9°C° 0 mm 2 mps 689 mmHg 91%
    06:00 -9°C° 0 mm 2 mps 689 mmHg 91%
    07:00 -9°C° 0 mm 2 mps 690 mmHg 91%
    08:00 -7°C° 0 mm 2 mps 690 mmHg 88%
    09:00 -6°C° 0 mm 2 mps 690 mmHg 85%
    10:00 -2°C° 0 mm 1 mps 690 mmHg 83%
    11:00 -1°C° 0 mm 1 mps 690 mmHg 78%
    12:00 0°C° 0 mm 1 mps 690 mmHg 74%
    13:00 +1°C° 0 mm 1 mps 689 mmHg 70%
    14:00 0°C° 0 mm 1 mps 689 mmHg 75%
    15:00 -1°C° 0 mm 1 mps 688 mmHg 80%
    16:00 -3°C° 0 mm 1 mps 688 mmHg 84%
    17:00 -4°C° 0 mm 1 mps 688 mmHg 84%
    18:00 -6°C° 0 mm 1 mps 688 mmHg 83%
    19:00 -6°C° 0 mm 1 mps 688 mmHg 82%
    20:00 -6°C° 0 mm 1 mps 688 mmHg 78%
    21:00 -6°C° 0 mm 1 mps 688 mmHg 75%
    22:00 -6°C° 0 mm 1 mps 687 mmHg 71%
    23:00 -6°C° 0 mm 1 mps 687 mmHg 68%

    28 November, Tuesday

    Time Temperature Precipitation Wind Pressure Humidity
    00:00 -6°C° 0 mm 1 mps 686 mmHg 66%
    01:00 -6°C° 0 mm 1 mps 686 mmHg 64%
    02:00 -7°C° 0 mm 2 mps 685 mmHg 63%
    03:00 -6°C° 0 mm 2 mps 685 mmHg 63%
    04:00 -6°C° 0 mm 2 mps 684 mmHg 62%
    05:00 -6°C° 0 mm 2 mps 684 mmHg 62%
    06:00 -6°C° 0 mm 2 mps 684 mmHg 62%
    07:00 -6°C° 0 mm 2 mps 683 mmHg 62%
    08:00 -4°C° 0 mm 2 mps 683 mmHg 64%
    09:00 -2°C° 0 mm 2 mps 683 mmHg 65%
    10:00 +1°C° 0 mm 2 mps 682 mmHg 67%
    11:00 +2°C° 0 mm 2 mps 682 mmHg 68%
    12:00 +3°C° 0 mm 2 mps 681 mmHg 68%
    13:00 +4°C° 0 mm 2 mps 680 mmHg 69%
    14:00 +3°C° 0 mm 2 mps 680 mmHg 72%
    15:00 +2°C° 0 mm 2 mps 679 mmHg 75%
    16:00 -1°C° 0 mm 2 mps 678 mmHg 78%
    17:00 -1°C° 0 mm 2 mps 678 mmHg 78%
    18:00 -2°C° 0 mm 2 mps 678 mmHg 78%
    19:00 -3°C° 0 mm 2 mps 678 mmHg 78%
    20:00 -3°C° 0 mm 2 mps 677 mmHg 78%
    21:00 -3°C° 0 mm 2 mps 677 mmHg 78%
    22:00 -3°C° 0 mm 2 mps 677 mmHg 78%
    23:00 -4°C° 0 mm 2 mps 677 mmHg 78%

    29 November, Wednesday

    Time Temperature Precipitation Wind Pressure Humidity
    00:00 -4°C° 0 mm 2 mps 676 mmHg 79%
    01:00 -4°C° 0 mm 2 mps 676 mmHg 79%
    02:00 -5°C° 0 mm 2 mps 676 mmHg 80%
    03:00 -5°C° 0 mm 2 mps 676 mmHg 80%
    04:00 -5°C° 0 mm 2 mps 675 mmHg 81%
    05:00 -5°C° 0 mm 2 mps 675 mmHg 83%
    06:00 -5°C° 0 mm 2 mps 675 mmHg 84%
    07:00 -5°C° 0 mm 2 mps 675 mmHg 86%
    08:00 -4°C° 0 mm 2 mps 675 mmHg 85%
    09:00 -2°C° 0 mm 2 mps 675 mmHg 85%
    10:00 -1°C° 0 mm 2 mps 675 mmHg 84%
    11:00 +1°C° 0.1 mm 2 mps 675 mmHg 84%
    12:00 +1°C° 0.1 mm 2 mps 674 mmHg 84%
    13:00 +2°C° 0.1 mm 2 mps 674 mmHg 84%
    14:00 +1°C° 0.5 mm 2 mps 674 mmHg 87%
    15:00 +2°C° 0.5 mm 1 mps 673 mmHg 91%
    16:00 +1°C° 0.5 mm 1 mps 673 mmHg 94%
    17:00 +1°C° 0.7 mm 1 mps 673 mmHg 95%
    18:00 +1°C° 0.7 mm 1 mps 673 mmHg 96%
    19:00 0°C° 0.7 mm 1 mps 673 mmHg 96%
    20:00 0°C° 0.7 mm 1 mps 673 mmHg 96%
    21:00 0°C° 0.7 mm 1 mps 673 mmHg 96%
    22:00 -2°C° 0.7 mm 2 mps 673 mmHg 96%
    23:00 -3°C° 0.8 mm 2 mps 673 mmHg 96%
    Show more